Погода в Майске

Погода в Майске : погода сейчас, прогноз погоды и архив. Всё, что Вы хотите узнать о погоде в Майске!

Хотите узнать прогноз погоды в Майске? Тогда Вам сюда: Погода в Майске

Поиск расширенной информации на нашем сайте:

Полезная информация: Распродажа мраморный камин.

Другие новости

Новости СМИ2

Главная страница сайта

Новости сайта

02.10.2013

Напоминаем, что на нашем новом сайте вы можете получить высокодетализированные прогнозы погоды по пунктам России, СНГ и мира (включающие важные для авиации метеовеличины, такие как направление и скорость ветра, видимость, явления погоды, количество и форма облачности, нижняя и верхняя граница облачности), а также ознакомиться с разнообразными материалами по авиационной метеорологии и подборкой полезных ссылок на эту тему.

Сайт Метеоцентр.Азия посвящён разработке технологий оптимизации авиаметеорологического обслуживания, включая проектирование и перспективное создание нескольких автоматизированных авиаметеорологических систем:
- система выпуска высокодетальных прогностических карт явлений погоды для нижнего воздушного пространства по России и ближнему зарубежью;
- система верификации прогнозов TAF (выпускаемых синоптиками официальных АМСГ РФ и ближнего зарубежья) и AUTOTAF (выпускаемых сайтом Метеоцентр.Азия) - выявление ошибок, онлайн-сопоставление с фактической погодой METAR, автоматическое внесение коррективов в прогнозы при резком отклонении фактической погоды от прогноза, подсчёт оправдываемости прогнозов по элементам и в целом;
- система обработки, анализа и отображения авиаметеорологической информации для применения провайдерами метеорологической информации.

Рекомендуем: подогрев сидений

Погода в Майске - сегодня

Время (UTC), дата Ветер
(°,м/с) 
Видим.   Явления Облачность Т
(°С)
Тd
(°С)
f(%) Тe
(°С)
Pmin
(гПа)
dP
(гПа)
Po
(мм)
O2
(г/м3)
Тmin Tmax R s Состояние
почвы
06 21.02.17 180 (Ю) 10 км  слаб. снег  10/10 600 м 
[Sc]
-4.8 -6.5 88 -8  1001.9  -1.6  742  305           
09 21.02.17 230 (ЮЗ) 10 км  слаб. ливневой снег  10/10 600 м кучево-дожд. 
[Cb cap]
-5 -6 93 -9  1001.1  -0.8  741  305           
12 21.02.17 230 (ЮЗ) 10 км  слаб. ливневой снег  10/10 600 м кучево-дожд. 
[Cb cap]
-0.2 -1.7 90 -4  1001.1  0.4  742  299    -0.3     
15 21.02.17 160 (Ю) 10 км  слаб. ливневой снег  10/10 600 м кучево-дожд. 
[Cb cap]
+0.2 -2.5 82 -2  1002.8  1.6  743  299           
18 21.02.17 230 (ЮЗ) 10 км  слаб. ливневой снег  10/10 600 м кучево-дожд. 
[Cb cap]
+0.2 -1.8 86 -2  1004.5  1.7  744  300           
21 21.02.17 230 (ЮЗ) 10 км  слаб. ливневой снег  10/10 600 м кучево-дожд. 
[Cb cap]
-0.4 -1 96 -2  1005.3  0.7  745  301           
00 22.02.17 230 (ЮЗ) 10 км  слаб. ливневой снег  10/10 600 м кучево-дожд. 
[Cb cap]
+0.2 -1.5 88 -2  1006.6  1.3  746  300  -0.4    0.8  89  неравномерный
сухой снег
100% 
03 22.02.17 230 (ЮЗ) 10 км  слаб. ливневой снег  10/10 600 м кучево-дожд. 
[Cb cap]
-0.6 -0.9 98 -2  1008  1.3  747  302  -0.6         
06 22.02.17 200 (Ю) 20000 м  {ливн. осадки}  10/10 600 м кучево-дожд. 
[Cb cap]
+0.4 -2.3 82 -2  1009.5  1.5  748  301           
09 22.02.17 230 (ЮЗ) 12-12{14}  20000 м  позёмок  10/10 600 м кучево-дожд. 
[Cb cap]
+0.8 -2.4 79 -4  1010.1  0.7  748  301           
12 22.02.17 200 (Ю) 5{10}  20000 м    10/10 600 м кучево-дожд. 
[Cb cap]
+1.2 -0.3 90 -2  1011.4  1.3  749  301    +1.2  0.5     
15 22.02.17 200 (Ю) 20000 м    10/10 600 м кучево-дожд. 
[Cb cap]
+0.4 -2.6 80 -2  1012.3  0.8  750  302           
18 22.02.17 230 (ЮЗ) 20000 м    ясно 
-1 -3.6 82 -4  1013.5  1.1  751  304           
21 22.02.17 230 (ЮЗ) 20000 м    ясно 
-2.6 -4.9 84 -5  1014.6  1.1  752  306           
00 23.02.17 230 (ЮЗ) 20000 м    ясно 
-3.2 -5.3 85 -6  1016.1  0.8  753  307  -3.2      87  неравномерный
сухой снег
100% 
03 23.02.17 200 (Ю) 20000 м    5/0 верхняя 
[Ci fib]
-3.8 -5.3 89 -6  1017.7  1.5  754  309  -3.8         
06 23.02.17 200 (Ю) 20000 м    10/0 верхняя 
[Cs]
+0.8 -5.3 64 -2  1018.7  1.2  755  304           
09 23.02.17 200 (Ю) 20000 м    6/0 верхняя 
[Cs]
+3.8 -9 39 +1  1018.5  755  301           
12 23.02.17 200 (Ю) 20000 м    10/0 верхняя 
[Ci fib]
+3.4 -8.7 41 +1  1019  0.5  755  301    +3.8       
15 23.02.17 200 (Ю) 20000 м    4/0 верхняя 
[Ci fib]
-1.2 -7.8 61 -4  1020.2  0.9  756  307           
18 23.02.17 230 (ЮЗ) 20000 м    3/0 верхняя 
[Ci fib]
-3.6 -8 71 -7  1021.1  0.8  756  310           
21 23.02.17 200 (Ю) 20000 м    ясно 
-5.4 -10.5 67 -5  1020.2  -1  755  312           
00 24.02.17 180 (Ю) 20000 м    ясно 
-7.6 -11.6 73 -7  1020.1  -0.2  755  314  -7.6      86  неравномерный
сухой снег
100% 
03 24.02.17 180 (Ю) 20000 м    4/0 верхняя 
[Ci fib]
-8.8 -10.3 89 -9  1021.7  1.5  756  316  -8.8         
06 24.02.17 180 (Ю) 20000 м    3/0 верхняя 
[Ci fib]
-3.2 -8.7 66 -3  1021.4  756  309           
Время (UTC), дата Ветер
(°,м/с) 
Видим.   Явления Облачность Т
(°С)
Тd
(°С)
f(%) Тe
(°С)
Pmin
(гПа)
dP
(гПа)
Po
(мм)
O2
(г/м3)
Тmin Tmax R s Состояние
почвы

Для получения пояснительной информации подведите курсор к названию столбца.

ПОГОДА в Майске - архив

Всё, что Вы хотите узнать о погоде в Майске - удобно и подробно!

Выберите нужную дату (начиная с 1 января 2015* года) и нажмите кнопку "Найти".
Будут отображены архивные сводки погоды по пункту Майск, начиная с указанной даты.


Отображать данные в формате CSV (для использования в таблицах Excel)


Внимание! Наш архив погоды предназначен исключительно для личного некоммерческого использования в познавательных целях. Если Вам необходимы официальные справки о состоянии погоды (для производственных, юридических, коммерческих и т.п. целей), обращайтесь в органы Росгидромета.

*Примечание: данная дата относится к архиву по метеостанциям СССР (Россия, СНГ, Балтия).
Архив по метеостанциям Зарубежной Европы и Азии (кроме Китая) хранится 10 дней, по другим регионам земного шара (Китай, Африка, Америка, Австралия, Океания) - 1 день.

Майск - район местоположения метеостанции


Название, широта, долгота, высота метеостанции:
Майск 57.8°ш. 77.3°д. 100 м над ур. моря [Российская Федерация]

Дополнительная информация

В oтличие oт бoльшинства пoгoдных сайтoв мы публикуем пoдрoбную метеoинфoрмацию в детальнoм прoфессиoнальнoм фoрмате.

Характеристики температуры и влажнoсти вoздуха измеряются на высoте 2 м в тени вдали oт зданий и деревьев.
Скoрoсть ветра измеряется на высoте 10 м (на урoвне рoста челoвека скoрoсть ветра ниже в 1.5-2 раза). Если метеoстанция нахoдится в гoрoде или в лесу, тo скoрoсть ветра занижена на 2-4 м/с пo сравнению с oткрытым местoм. Скoрoсть ветра над акватoриями крупных рек и oзёр, а также на вершинах хoлмoв на 2-5 м/с выше, чем в oбычных услoвиях.
Атмoсфернoе давление в разных тoчках местнoсти мoжет значительнo oтличаться oт давления на метеoстанции, в зависимoсти oт услoвий рельефа (при пoдъёме на 10 м давление пoнижается примернo на 1 мм рт.ст.).